Torna al catalogo

QIANFAN-46

AttivoComunicazioniPO
NORAD 62247·PAYLOAD·🇨🇳 China

Lanciato Dec 5, 2024 da Taiyuan Satellite Launch Center

Loading…

Prossimi Passaggi (prossime 24 ore)

TLE

AggiornatoSource: Space-Track

Epoca: Sep 14, 2026, 22:02 UTC

1 62247U 24232L   26257.91815780  .00000105  00000-0  14428-3 0  9993
2 62247  89.0160  13.5736 0016298 119.0480 241.2307 13.51028938136505

Traccia QIANFAN-46 in tempo reale con AllMySat

Download on the App Store